Voltar ao catálogo

KONDOR FKA 2

AtivoMilitarSSO
NORAD 62138·PAYLOAD·🇷🇺 Russia

Lançado Nov 29, 2024 de Vostochny Cosmodrome

Loading…

Próximas Passagens (próximas 24 horas)

TLE

AtualizadoSource: Space-Track

Época: Sep 14, 2026, 14:16 UTC

1 62138U 24223A   26257.59449493  .00002788  00000-0  13375-3 0  9999
2 62138  97.4427  99.7496 0001758  88.6483 271.4953 15.19713740 99284

Acompanhe KONDOR FKA 2 em tempo real com AllMySat

Download on the App Store